Location: Tel Aviv
(32.0670°N, 34.7670°E)
Time: 20:10:46
(UTC+03:00)

Vanguard 2 Rocket - Pass Details

Date: 29 January 2022
Orbit: 553 x 3323 km, 32.9° (Epoch: 24 May)

Event Time Altitude Azimuth Distance (km) Brightness Sun altitude
Exits shadow 03:46:00 57° 278° (W) 3,442 9.3 -36.2°
Maximum altitude 03:51:55 89° 189° (S) 3,239 9.4 -35.0°
Drops below altitude 10° 04:12:23 10° 103° (ESE) 6,033 11.9 -30.6°
Sets 04:16:38 0° 103° (ESE) 6,855 12.5 -29.7°
